This is the latest recevied weather packets stored in our database for station/object YD2UMH-10. If no packets are shown the sender has not sent any weather packets the latest 10 day(s).
| Time | Temp. | Humidity | Pressure | Rain* | Wind** | Luminosity | Snow |
|---|---|---|---|---|---|---|---|
| 1778051378 | 37.78° C | 75% | 987 hPa | - | - | 0 W/m² | - |
| 1778051056 | 38.33° C | 72% | 987 hPa | - | - | 0 W/m² | - |
| 1778050734 | 39.44° C | 74% | 987 hPa | - | - | 0 W/m² | - |
| 1778050412 | 41.11° C | 68% | 987 hPa | - | - | 0 W/m² | - |
| 1778050091 | 39.44° C | 77% | 987 hPa | - | - | 0 W/m² | - |
| 1778049769 | 40° C | 72% | 988 hPa | - | - | 0 W/m² | - |
| 1778049446 | 37.22° C | 82% | 988 hPa | - | - | 0 W/m² | - |
| 1778049125 | 36.11° C | 87% | 988 hPa | - | - | 0 W/m² | - |
| 1778048803 | 40.56° C | 70% | 988 hPa | - | - | 0 W/m² | - |
| 1778048480 | 40° C | 73% | 988 hPa | - | - | 0 W/m² | - |
| 1778048159 | 38.89° C | 81% | 988 hPa | - | - | 0 W/m² | - |
| 1778047836 | 38.33° C | 83% | 988 hPa | - | - | 0 W/m² | - |
| 1778047514 | 38.89° C | 84% | 988 hPa | - | - | 0 W/m² | - |
| 1778047192 | 36.67° C | 99% | 988 hPa | - | - | 0 W/m² | - |
| 1778046870 | 41.11° C | 77% | 988 hPa | - | - | 0 W/m² | - |
| 1778046548 | 37.78° C | 90% | 988 hPa | - | - | 0 W/m² | - |
| 1778046226 | 40.56° C | 78% | 988 hPa | - | - | 0 W/m² | - |
| 1778045904 | 36.67° C | 92% | 988 hPa | - | - | 0 W/m² | - |
| 1778045582 | 40° C | 80% | 988 hPa | - | - | 0 W/m² | - |
| 1778045260 | 39.44° C | 76% | 989 hPa | - | - | 0 W/m² | - |
| 1778044938 | 39.44° C | 84% | 989 hPa | - | - | 0 W/m² | - |
| 1778044616 | 37.22° C | 94% | 989 hPa | - | - | 0 W/m² | - |
| 1778044294 | 35.56° C | 99% | 989 hPa | - | - | 0 W/m² | - |
| 1778043972 | 39.44° C | 82% | 989 hPa | - | - | 0 W/m² | - |
| 1778043650 | 38.89° C | 91% | 989 hPa | - | - | 0 W/m² | - |
* Rain since midnight (hover to see other rain measurements)
** Current wind speed in m/s (hover to see current wind gust speed)